TimeCST,TemperatureF,Dew PointF,Humidity,Sea Level PressureIn,VisibilityMPH,Wind Direction,Wind SpeedMPH,Gust SpeedMPH,PrecipitationIn,Events,Conditions,WindDirDegrees,DateUTC
12:15 AM,53.1,46.2,78,30.30,10.0,South,3.5,-,N/A,,Overcast,170,2013-11-05 06:15:00
12:35 AM,52.7,46.6,80,30.30,10.0,SSE,3.5,-,N/A,,Overcast,160,2013-11-05 06:35:00
12:55 AM,52.7,46.8,80,30.32,10.0,Calm,Calm,-,N/A,,Overcast,0,2013-11-05 06:55:00
1:15 AM,53.2,46.9,79,30.32,10.0,South,5.8,-,N/A,Rain,Light Rain,180,2013-11-05 07:15:00
1:35 AM,52.9,47.5,82,30.32,10.0,South,3.5,-,N/A,,Light Drizzle,180,2013-11-05 07:35:00
1:55 AM,52.2,48.2,86,30.32,10.0,South,4.6,-,N/A,Rain,Light Rain,180,2013-11-05 07:55:00
2:15 AM,51.6,48.6,89,30.32,10.0,South,4.6,-,0.01,Rain,Light Rain,180,2013-11-05 08:15:00
2:35 AM,51.3,49.1,92,30.32,10.0,SSE,3.5,-,0.02,Rain,Light Rain,160,2013-11-05 08:35:00
2:55 AM,51.1,49.1,93,30.31,7.0,SE,3.5,-,0.03,Rain,Light Rain,140,2013-11-05 08:55:00
3:15 AM,51.1,49.5,94,30.31,10.0,SSE,4.6,-,N/A,Rain,Light Rain,150,2013-11-05 09:15:00
3:35 AM,50.9,49.3,94,30.30,7.0,Calm,Calm,-,N/A,,Overcast,0,2013-11-05 09:35:00
3:55 AM,50.9,49.8,96,30.31,7.0,Calm,Calm,-,N/A,,Overcast,0,2013-11-05 09:55:00
4:15 AM,51.1,49.6,95,30.31,7.0,Calm,Calm,-,N/A,,Overcast,0,2013-11-05 10:15:00
4:35 AM,51.1,49.5,94,30.31,10.0,Calm,Calm,-,N/A,,Overcast,0,2013-11-05 10:35:00
4:55 AM,51.1,49.5,94,30.32,7.0,Calm,Calm,-,N/A,,Overcast,0,2013-11-05 10:55:00
5:15 AM,51.1,49.5,94,30.31,7.0,East,3.5,-,N/A,,Overcast,90,2013-11-05 11:15:00
5:35 AM,51.1,49.1,93,30.31,7.0,SE,5.8,-,N/A,,Mostly Cloudy,140,2013-11-05 11:35:00
5:55 AM,51.3,48.6,90,30.32,10.0,SSE,6.9,-,N/A,,Scattered Clouds,150,2013-11-05 11:55:00
6:15 AM,51.1,48.4,90,30.32,10.0,SSE,6.9,-,N/A,,Clear,150,2013-11-05 12:15:00
6:35 AM,51.3,48.2,89,30.32,10.0,SSE,5.8,-,N/A,,Clear,160,2013-11-05 12:35:00
6:55 AM,51.3,47.8,88,30.32,10.0,SSE,5.8,-,N/A,,Clear,150,2013-11-05 12:55:00
7:15 AM,51.8,47.7,86,30.33,10.0,SSE,4.6,-,N/A,,Scattered Clouds,160,2013-11-05 13:15:00
7:35 AM,51.8,47.8,86,30.33,10.0,SSE,6.9,-,N/A,,Scattered Clouds,160,2013-11-05 13:35:00
7:55 AM,52.2,47.8,85,30.34,10.0,SSE,5.8,-,N/A,,Scattered Clouds,160,2013-11-05 13:55:00
8:15 AM,52.7,47.5,82,30.35,10.0,South,5.8,-,N/A,,Scattered Clouds,170,2013-11-05 14:15:00
8:35 AM,53.1,47.7,82,30.36,10.0,South,5.8,-,N/A,,Scattered Clouds,170,2013-11-05 14:35:00
8:55 AM,53.1,46.8,79,30.36,10.0,South,6.9,-,N/A,,Mostly Cloudy,170,2013-11-05 14:55:00
9:15 AM,52.9,46.6,79,30.37,10.0,South,6.9,-,N/A,,Scattered Clouds,190,2013-11-05 15:15:00
9:35 AM,53.1,46.2,78,30.36,10.0,South,6.9,-,N/A,,Scattered Clouds,180,2013-11-05 15:35:00
9:55 AM,53.1,46.6,79,30.35,10.0,South,6.9,-,N/A,,Scattered Clouds,180,2013-11-05 15:55:00
10:15 AM,53.6,46.9,78,30.36,10.0,South,4.6,-,N/A,,Scattered Clouds,170,2013-11-05 16:15:00
10:35 AM,54.7,47.7,77,30.35,10.0,South,4.6,-,N/A,,Clear,170,2013-11-05 16:35:00
10:55 AM,55.6,47.8,75,30.34,10.0,SSE,4.6,-,N/A,,Clear,160,2013-11-05 16:55:00
11:15 AM,56.7,47.5,71,30.32,10.0,SSE,4.6,-,N/A,,Scattered Clouds,150,2013-11-05 17:15:00
11:35 AM,57.9,47.7,69,30.32,10.0,South,5.8,-,N/A,,Scattered Clouds,170,2013-11-05 17:35:00
11:55 AM,59.4,47.5,65,30.30,10.0,South,9.2,-,N/A,,Clear,170,2013-11-05 17:55:00
12:15 PM,59.9,47.7,64,30.29,10.0,SSE,9.2,-,N/A,,Clear,160,2013-11-05 18:15:00
12:35 PM,60.4,47.3,62,30.28,10.0,SSE,10.4,-,N/A,,Clear,160,2013-11-05 18:35:00
12:55 PM,61.7,47.5,60,30.27,10.0,SSE,9.2,-,N/A,,Clear,160,2013-11-05 18:55:00
1:15 PM,64.4,48.2,56,30.26,10.0,SSE,11.5,-,N/A,,Clear,150,2013-11-05 19:15:00
1:35 PM,64.9,48.0,54,30.25,10.0,SSE,11.5,-,N/A,,Clear,150,2013-11-05 19:35:00
1:55 PM,64.9,47.8,54,30.24,10.0,South,11.5,-,N/A,,Clear,170,2013-11-05 19:55:00
2:15 PM,64.2,47.8,55,30.24,10.0,SSE,11.5,-,N/A,,Clear,150,2013-11-05 20:15:00
2:35 PM,64.4,48.0,55,30.23,10.0,SSE,10.4,16.1,N/A,,Clear,160,2013-11-05 20:35:00
2:55 PM,65.5,48.4,54,30.22,10.0,SSE,15.0,19.6,N/A,,Clear,150,2013-11-05 20:55:00
3:15 PM,65.5,48.6,54,30.21,10.0,SSE,9.2,17.3,N/A,,Clear,150,2013-11-05 21:15:00
3:35 PM,64.4,48.4,56,30.21,10.0,SSE,10.4,-,N/A,,Clear,150,2013-11-05 21:35:00
3:55 PM,63.1,48.6,59,30.21,10.0,SSE,6.9,-,N/A,,Mostly Cloudy,150,2013-11-05 21:55:00
4:15 PM,62.8,48.6,60,30.20,10.0,SSE,6.9,-,N/A,,Overcast,150,2013-11-05 22:15:00
4:35 PM,61.9,48.4,61,30.21,10.0,SSE,8.1,-,N/A,,Overcast,160,2013-11-05 22:35:00
4:55 PM,60.6,48.4,64,30.20,10.0,SSE,6.9,-,N/A,,Mostly Cloudy,150,2013-11-05 22:55:00
5:15 PM,60.1,48.2,65,30.19,10.0,SSE,8.1,-,N/A,,Scattered Clouds,150,2013-11-05 23:15:00
5:35 PM,59.0,48.2,67,30.20,10.0,SE,8.1,-,N/A,,Scattered Clouds,140,2013-11-05 23:35:00
5:55 PM,59.9,48.6,66,30.20,10.0,SSE,6.9,-,N/A,,Mostly Cloudy,150,2013-11-05 23:55:00
6:15 PM,59.7,48.7,67,30.20,10.0,SSE,5.8,-,N/A,,Overcast,150,2013-11-06 00:15:00
6:35 PM,59.9,48.7,67,30.19,10.0,SSE,6.9,-,N/A,,Overcast,150,2013-11-06 00:35:00
6:55 PM,60.3,48.2,64,30.18,10.0,SSE,6.9,-,N/A,,Overcast,150,2013-11-06 00:55:00
7:15 PM,60.8,48.2,63,30.18,10.0,SSE,9.2,-,N/A,,Overcast,160,2013-11-06 01:15:00
7:35 PM,60.3,48.2,64,30.18,10.0,SSE,10.4,-,N/A,,Overcast,150,2013-11-06 01:35:00
7:55 PM,60.6,48.0,63,30.17,10.0,SSE,9.2,-,N/A,,Overcast,150,2013-11-06 01:55:00
8:15 PM,60.8,47.8,62,30.16,10.0,SSE,8.1,-,N/A,,Overcast,150,2013-11-06 02:15:00
8:35 PM,60.8,47.8,62,30.15,10.0,SSE,9.2,-,N/A,,Overcast,150,2013-11-06 02:35:00
8:55 PM,60.6,48.0,63,30.15,10.0,SSE,8.1,-,N/A,,Overcast,150,2013-11-06 02:55:00
9:15 PM,60.1,47.8,64,30.14,10.0,SSE,10.4,-,N/A,,Mostly Cloudy,150,2013-11-06 03:15:00
9:35 PM,59.9,48.2,65,30.14,10.0,SSE,9.2,-,N/A,,Mostly Cloudy,150,2013-11-06 03:35:00
9:55 PM,60.3,48.0,64,30.13,10.0,SSE,9.2,-,N/A,,Mostly Cloudy,150,2013-11-06 03:55:00
10:15 PM,59.9,48.2,65,30.12,10.0,SSE,8.1,-,N/A,,Mostly Cloudy,150,2013-11-06 04:15:00
10:35 PM,59.2,47.8,66,30.12,10.0,SSE,10.4,-,N/A,,Scattered Clouds,160,2013-11-06 04:35:00
10:55 PM,61.2,47.7,61,30.12,10.0,South,12.7,17.3,N/A,,Clear,180,2013-11-06 04:55:00
11:15 PM,61.7,47.7,60,30.12,10.0,South,12.7,18.4,N/A,,Scattered Clouds,180,2013-11-06 05:15:00
11:35 PM,62.1,48.2,60,30.12,10.0,South,12.7,16.1,N/A,,Mostly Cloudy,180,2013-11-06 05:35:00
11:55 PM,61.7,48.6,62,30.12,10.0,South,8.1,-,N/A,,Overcast,180,2013-11-06 05:55:00